Content
SEND FEEDBACK

Daily
Averages
Monthly
Summary
Dominican Republic

SAN FRANCISCO DE MACORIS, DOMINICAN REPUBLIC


Home > Caribbean > Dominican Republic
Elevation: 110 meters     Latitude: 19 18N     Longitude: 070 18W

WEATHER
 
SELECT A DAY
Number of Records: 141,305;   Date Range: 7/1/96 - 8/10/14
 
SHARE

PRINT THIS DATA

[ ← Previous Day ]
WEATHER ALMANAC - 13 FEBRUARY, 2013
[ Next Day → ]
[ °F ]   °C
Weather ElementAverageHighLow
Temperature21.5 °C29 °C (4:00 pm)14 °C (7:00 am)
Dewpoint16.7 °C20 °C (9:00 pm)13 °C (8:00 am)
Humidity77.9 %100 % (1:00 am)42 % (4:00 pm)
Barometer1016.6 hPa1019 hPa (1:00 am)1014.2 hPa (4:00 pm)
Wind Speed10.5 km/h29.6 km/h (1:00 pm)
Weather ElementAverage
Visibility9.7 km
Wind DirectionESE (96.1 °)

Weather ElementTotal
Precipitation---
Cooling Degree Days3.2 (Base 18.3)
Growing Degree Days11.5 (Base 10)
Averaged from 24 records on 13 February, 2013
WEATHER CONDITIONS BREAKOUT
WIND DIRECTION BREAKOUT
WEATHER BY HOUR - 13 FEBRUARY, 2013
[ °F ]   °C
Local TimeTemperatureDewpointHumidityBarometerVisibilityWind DirectionWind SpeedGust SpeedPrecipitationEventsConditions
1:00 AM18 °C18 °C100 %1019 hPa10 kmESE (110°)9.3 km/hPartly Cloudy
2:00 AM17 °C16 °C94 %1017.9 hPa10 kmSE (130°)7.4 km/hPartly Cloudy
3:00 AM16 °C16 °C100 %1017.3 hPa10 kmVariable5.6 km/hPartly Cloudy
4:00 AM16 °C16 °C100 %1016.3 hPa10 kmVariable5.6 km/hPartly Cloudy
5:00 AM15.6 °C15.6 °C98 %1016.6 hPa9.7 kmCalmHaze
5:00 AM16 °C16 °C100 %1016.3 hPa10 kmCalmScattered Clouds
6:00 AM16 °C16 °C100 %1016.3 hPa10 kmCalmPartly Cloudy
7:00 AM14 °C14 °C100 %1017.3 hPa3.1 kmCalmPartly Cloudy
8:00 AM14 °C13 °C94 %1017.9 hPa10 kmCalmPartly Cloudy
9:00 AM19 °C19 °C100 %1017.9 hPa10 kmCalmPartly Cloudy
10:00 AM22 °C18 °C78 %1019 hPa10 kmSE (130°)13 km/hPartly Cloudy
11:00 AM24 °C17 °C65 %1019 hPa10 kmSE (130°)22.2 km/hPartly Cloudy
12:00 PM27 °C15 °C48 %1019 hPaSSE (160°)22.2 km/hClear
1:00 PM27 °C15 °C48 %1017.3 hPaSE (130°)29.6 km/hClear
2:00 PM28 °C16 °C48 %1015.2 hPa10 kmSE (130°)25.9 km/hPartly Cloudy
3:00 PM28 °C15 °C45 %1015.2 hPaSE (130°)22.2 km/hClear
4:00 PM29 °C15 °C42 %1014.2 hPaSSE (160°)14.8 km/hClear
5:00 PM28 °C16 °C48 %1014.2 hPaSSE (160°)14.8 km/hClear
6:00 PM28 °C17 °C51 %1014.2 hPa10 kmSE (130°)14.8 km/hPartly Cloudy
7:00 PM25 °C17 °C61 %1015.2 hPa10 kmSE (130°)11.1 km/hPartly Cloudy
8:00 PM24 °C19 °C73 %1015.2 hPa10 kmSSW (200°)7.4 km/hPartly Cloudy
9:00 PM23 °C20 °C83 %1016.3 hPa10 kmSSE (160°)11.1 km/hPartly Cloudy
10:00 PM21 °C20 °C94 %1017.3 hPa10 kmSE (130°)7.4 km/hPartly Cloudy
11:00 PM20 °C20 °C100 %1017.3 hPa10 kmEast (90°)7.4 km/hPartly Cloudy
Hourly data recorded from MDST, located 0 kilometers away from San Francisco de Macoris, Dominican Republic







STORIES FROM OUR PARTNERS